Regional Weather Roundup
Issued by NWS

Home | Current Version | Previous Version | Graphics & Text | Print | Product List | Glossary On
Versions: 1 2 3 4 5 6 7 8 9 10 11 12 13 14 15 16 17 18 19 20 21 22 23 24 25 26 27 28 29 30 31 32 33 34 35 36 37 38 39 40 41 42 43 44 45 46 47 48 49
000
ASUS45 KSLC 130810
RWRUT

UTAH REGIONAL WEATHER ROUNDUP
NATIONAL WEATHER SERVICE SALT LAKE CITY UT
200 AM MDT SUN JUL 13 2014

UTZ001>011-023>025-130900-

NORTHERN UTAH

CITY           SKY/WX    TMP DP  RH WIND       PRES   REMARKS
HILL AFB       CLEAR     78  50  38 E18       30.20R
LOGAN          NOT AVBL
OGDEN          NOT AVBL
PROVO AIRPORT  NOT AVBL
SALT LAKE CITY NOT AVBL
VERNAL         NOT AVBL
WENDOVER       NOT AVBL
HEBER CITY     CLEAR     59  52  77 CALM      30.30R
WEST JORDAN    CLEAR     77  54  44 CALM      30.19

$$

UTZ012>022-026-027-130900-

SOUTHERN UTAH

CITY           SKY/WX    TMP DP  RH WIND       PRES   REMARKS
CEDAR CITY     NOT AVBL
MILFORD        NOT AVBL
MOAB/CYNLANDS  NOT AVBL
PRICE          NOT AVBL
ST GEORGE      NOT AVBL

$$

REGIONAL REPORTS     COLORADO/ARIZONA

CITY           SKY/WX    TMP DP  RH WIND       PRES   REMARKS
CRAIG, CO      PTCLDY    54  54 100 CALM      30.34S
GRAND JUNCTION PTCLDY    77  48  35 SE9       30.17S
RIFLE          CLEAR     66  56  70 SE5       30.25S
MONTROSE       CLEAR     71  52  50 E20G26    30.28R
CORTEZ         PTCLDY    66  51  58 E5        30.26R
PAGE, AZ       MOCLDY    89  42  19 SW5       30.07S
GRAND CANYON   PTCLDY    59  51  75 CALM      30.33R
KINGMAN        CLEAR     78  49  35 SW6       30.04S
FLAGSTAFF      MOCLDY    58  56  93 N5        30.36F

$$

REGIONAL REPORTS    NEVADA/IDAHO/WYOMING

CITY           SKY/WX    TMP DP  RH WIND       PRES   REMARKS
LAS VEGAS, NV  MOCLDY    91  38  15 S9        29.89R
ELY            NOT AVBL
ELKO           CLEAR     74  44  34 CALM      30.23R
POCATELLO, ID  NOT AVBL
EVANSTON, WY   NOT AVBL
ROCK SPRINGS   NOT AVBL

$$


USA.gov is the U.S. government's official web portal to all federal, state and local government web resources and services.